CW3786 Weather Reports


Display with metric or nautical units.
time (UTC)temp
F
wind
direction
speed
MPH
gust
MPH
rain 1hr
in
rain 24hr
in
rain mn
in
humidity
%
barometer
mb
20260505014048 60 178 1.0 6.0 0.00 0.00 0.00 73 1008.8
20260505013603 60 216 0.0 3.0 0.00 0.00 0.00 71 1008.8
20260505013057 61 253 0.0 3.0 0.00 0.00 0.00 69 1008.8
20260505012612 61 254 0.0 3.0 0.00 0.00 0.00 68 1008.8
20260505012050 61 232 1.0 3.0 0.00 0.00 0.00 68 1008.8
20260505011545 61 251 0.0 7.0 0.00 0.00 0.00 68 1008.8
20260505011101 61 269 2.0 7.0 0.00 0.00 0.00 66 1008.8
20260505010556 62 284 2.0 7.0 0.00 0.00 0.00 66 1008.8
20260505010052 62 226 3.0 7.0 0.00 0.00 0.00 64 1008.8
20260505005606 62 283 0.0 3.0 0.00 0.00 0.00 64 1008.9
20260505005044 62 223 0.0 4.0 0.00 0.00 0.00 65 1008.9
20260505004638 62 174 0.0 4.0 0.00 0.00 0.00 66 1008.9
20260505004105 62 266 1.0 4.0 0.00 0.00 0.00 64 1009.1
20260505003655 62 224 2.0 4.0 0.00 0.00 0.00 63 1009.1
20260505003053 62 254 0.0 6.0 0.00 0.00 0.00 65 1009.1
20260505002548 63 288 2.0 6.0 0.00 0.00 0.00 65 1009.2
20260505002042 62 265 2.0 6.0 0.00 0.00 0.00 67 1009.2
20260505001558 62 269 1.0 6.0 0.00 0.00 0.00 66 1009.2
20260505001053 62 264 0.0 6.0 0.00 0.00 0.00 68 1009.1
20260505000548 61 270 2.0 6.0 0.00 0.00 0.00 67 1009.1
20260505000052 61 242 0.0 7.0 0.00 0.00 0.00 67 1009.1
20260504235547 61 240 0.0 7.0 0.00 0.00 0.00 67 1008.8
20260504235041 62 276 0.0 11.0 0.00 0.00 0.00 68 1008.8
20260504234617 62 286 2.0 11.0 0.00 0.00 0.00 66 1008.8
20260504234049 63 261 0.0 7.0 0.00 0.00 0.00 64 1008.8
20260504233648 63 230 0.0 7.0 0.00 0.00 0.00 63 1008.8
20260504233106 62 251 0.0 11.0 0.00 0.00 0.00 65 1008.8
20260504232548 62 258 0.0 11.0 0.00 0.00 0.00 65 1008.7
20260504232045 62 241 0.0 9.0 0.00 0.00 0.00 64 1008.7
20260504231544 62 221 2.0 12.0 0.00 0.00 0.00 63 1008.7
20260504231102 63 279 2.0 12.0 0.00 0.00 0.00 64 1008.7
20260504230555 63 195 2.0 11.0 0.00 0.00 0.00 64 1008.7
20260504230049 63 244 3.0 11.0 0.00 0.00 0.00 64 1008.7
20260504225542 63 233 2.0 17.0 0.00 0.00 0.00 61 1008.8
20260504225059 63 216 1.0 17.0 0.00 0.00 0.00 62 1008.8
20260504224552 64 272 5.0 14.0 0.00 0.00 0.00 62 1008.8
20260504224104 63 207 1.0 14.0 0.00 0.00 0.00 64 1009.2
20260504223601 63 232 3.0 11.0 0.00 0.00 0.00 64 1009.2
20260504223137 63 232 2.0 9.0 0.00 0.00 0.00 66 1009.2
20260504222558 63 194 1.0 12.0 0.00 0.00 0.00 66 1009.3
20260504222107 63 279 4.0 15.0 0.00 0.00 0.00 65 1009.3
20260504221540 64 275 5.0 16.0 0.00 0.00 0.00 61 1009.3
20260504221056 64 197 4.0 16.0 0.00 0.00 0.00 62 1009.7
20260504220551 64 215 1.0 10.0 0.00 0.00 0.00 65 1009.7
20260504220104 65 248 1.0 7.0 0.00 0.00 0.00 63 1009.7
20260504215542 65 231 1.0 7.0 0.00 0.00 0.00 63 1009.7
20260504215058 65 289 0.0 4.0 0.00 0.00 0.00 61 1009.7
20260504214613 65 207 0.0 5.0 0.00 0.00 0.00 65 1009.7
20260504214047 64 184 2.0 7.0 0.00 0.00 0.00 64 1010.0
20260504213542 64 224 1.0 7.0 0.00 0.00 0.00 65 1010.0
20260504213057 64 292 0.0 5.0 0.00 0.00 0.00 65 1010.0
20260504212618 64 188 0.0 4.0 0.00 0.00 0.00 64 1010.2
20260504212050 65 202 1.0 4.0 0.00 0.00 0.00 64 1010.2
20260504211547 64 191 0.0 4.0 0.00 0.00 0.00 65 1010.2
20260504211041 64 270 1.0 12.0 0.00 0.00 0.00 64 1010.2
20260504210557 64 228 1.0 12.0 0.00 0.00 0.00 65 1010.2
20260504210054 64 219 0.0 5.0 0.00 0.00 0.00 66 1010.2
20260504205609 64 242 0.0 5.0 0.00 0.00 0.00 64 1010.1
20260504205043 65 197 1.0 4.0 0.00 0.00 0.00 64 1010.1
20260504204542 65 222 0.0 9.0 0.00 0.00 0.00 62 1010.1
20260504204042 65 218 3.0 9.0 0.00 0.00 0.00 63 1010.1
20260504203556 66 188 1.0 7.0 0.00 0.00 0.00 63 1010.1
20260504203052 66 290 2.0 7.0 0.00 0.00 0.00 61 1010.1
20260504202608 65 221 0.0 4.0 0.00 0.00 0.00 62 1010.0
20260504202138 66 209 1.0 7.0 0.00 0.00 0.00 61 1010.0
20260504201554 66 313 1.0 7.0 0.00 0.00 0.00 60 1010.0
20260504201045 66 202 1.0 5.0 0.00 0.00 0.00 59 1010.2
20260504200544 66 190 2.0 5.0 0.00 0.00 0.00 56 1010.2
20260504200039 66 207 0.0 5.0 0.00 0.00 0.00 59 1010.2
20260504195615 66 286 2.0 7.0 0.00 0.00 0.00 57 1010.0
20260504195050 66 243 2.0 7.0 0.00 0.00 0.00 56 1010.0
20260504194545 67 273 0.0 5.0 0.00 0.00 0.00 59 1010.0
20260504194041 66 240 1.0 11.0 0.00 0.00 0.00 56 1010.3
20260504193617 66 264 3.0 11.0 0.00 0.00 0.00 58 1010.3
20260504193051 66 211 1.0 9.0 0.00 0.00 0.00 58 1010.3
20260504192545 66 276 3.0 10.0 0.00 0.00 0.00 57 1010.3
20260504192059 65 264 1.0 10.0 0.00 0.00 0.00 57 1010.3
20260504191617 65 278 1.0 10.0 0.00 0.00 0.00 58 1010.3
20260504191117 65 257 3.0 10.0 0.00 0.00 0.00 56 1010.2
20260504190550 65 290 2.0 6.0 0.00 0.00 0.00 58 1010.2
20260504190045 65 284 0.0 6.0 0.00 0.00 0.00 58 1010.2
20260504185557 64 219 1.0 9.0 0.00 0.00 0.00 59 1010.3
20260504185052 63 274 2.0 9.0 0.00 0.00 0.00 59 1010.3
20260504184548 63 207 1.0 11.0 0.00 0.00 0.00 59 1010.3
20260504184102 63 218 1.0 11.0 0.00 0.00 0.00 59 1010.3
20260504183630 63 222 1.0 11.0 0.00 0.00 0.00 61 1010.3
20260504183104 64 242 1.0 6.0 0.00 0.00 0.00 62 1010.3
20260504182553 64 255 2.0 6.0 0.00 0.00 0.00 61 1010.3
20260504182048 63 217 1.0 11.0 0.00 0.00 0.00 60 1010.3
20260504181543 63 269 1.0 11.0 0.00 0.00 0.00 61 1010.3
20260504181059 63 271 1.0 9.0 0.00 0.00 0.00 61 1010.3
20260504180614 63 188 2.0 14.0 0.00 0.00 0.00 59 1010.3
20260504180050 63 288 4.0 14.0 0.00 0.00 0.00 59 1010.3
20260504175547 63 218 2.0 15.0 0.00 0.00 0.00 61 1010.3
20260504175041 63 282 1.0 15.0 0.00 0.00 0.00 63 1010.3
20260504174557 63 242 2.0 13.0 0.00 0.00 0.00 62 1010.3
20260504174112 63 303 3.0 13.0 0.00 0.00 0.00 60 1010.3
20260504173605 63 267 1.0 7.0 0.00 0.00 0.00 62 1010.3
20260504173059 63 274 1.0 9.0 0.00 0.00 0.00 63 1010.3
20260504172553 62 328 1.0 9.0 0.00 0.00 0.00 61 1010.1
20260504172049 62 213 2.0 10.0 0.00 0.00 0.00 61 1010.1
20260504171543 62 288 1.0 10.0 0.00 0.00 0.00 62 1010.1
20260504171118 62 286 1.0 11.0 0.00 0.00 0.00 60 1009.8
20260504170621 62 267 1.0 11.0 0.00 0.00 0.00 59 1009.8
20260504151102 57 263 2.0 7.0 0.00 0.00 0.00 71 1009.3
20260504150535 57 269 2.0 7.0 0.00 0.00 0.00 72 1009.3
20260504141046 55 273 1.0 7.0 0.00 0.00 0.00 80 1009.0
20260504140556 55 271 1.0 5.0 0.00 0.00 0.00 81 1009.0
20260504130606 55 280 0.0 5.0 0.00 0.00 0.00 79 1008.9
20260504110547 56 265 0.0 6.0 0.00 0.00 0.00 78 1008.8
20260504081609 56 275 0.0 0.0 0.00 0.00 0.00 79 1009.3
20260504081057 57 275 0.0 0.0 0.00 0.00 0.00 78 1009.6
20260504080550 57 275 0.0 0.0 0.00 0.00 0.00 78 1009.6
20260504050540 57 234 0.0 0.0 0.00 0.00 0.00 76 1009.2
20260504045549 57 267 0.0 5.0 0.00 0.00 0.00 76 1009.2
20260504045043 57 225 0.0 0.0 0.00 0.00 0.00 78 1009.2
20260504044613 57 225 0.0 4.0 0.00 0.00 0.00 79 1009.2
20260504044057 57 284 1.0 4.0 0.00 0.00 0.00 79 1009.2
20260504043554 58 280 0.0 6.0 0.00 0.00 0.00 79 1009.2
20260504043115 58 284 1.0 6.0 0.00 0.00 0.00 81 1009.2
20260504042612 58 269 0.0 5.0 0.00 0.00 0.00 79 1009.0
20260504042050 58 246 0.0 4.0 0.00 0.00 0.00 78 1009.0
20260504041545 58 271 0.0 5.0 0.00 0.00 0.00 78 1009.0
20260504041041 58 269 0.0 5.0 0.00 0.00 0.00 77 1008.8
20260504040556 58 269 0.0 1.0 0.00 0.00 0.00 76 1008.8
20260504040050 58 269 0.0 3.0 0.00 0.00 0.00 76 1008.8
20260504035550 58 269 0.0 5.0 0.00 0.00 0.00 76 1008.7
20260504035045 58 248 0.0 4.0 0.00 0.00 0.00 75 1008.7
20260504034602 58 219 0.0 5.0 0.00 0.00 0.00 75 1008.7
20260504034100 58 254 1.0 5.0 0.00 0.00 0.00 75 1008.4
20260504033555 58 284 0.0 3.0 0.00 0.00 0.00 75 1008.4
20260504033111 58 261 0.0 2.0 0.00 0.00 0.00 76 1008.4
20260504032620 58 261 0.0 6.0 0.00 0.00 0.00 75 1008.2
20260504032104 58 267 1.0 7.0 0.00 0.00 0.00 75 1008.2
20260504031542 58 281 3.0 7.0 0.00 0.00 0.00 75 1008.2
20260504031058 58 287 0.0 9.0 0.00 0.00 0.00 75 1008.2
20260504030553 58 275 1.0 9.0 0.00 0.00 0.00 74 1008.2
20260504030108 58 276 0.0 6.0 0.00 0.00 0.00 75 1008.2
20260504025537 58 281 0.0 5.0 0.00 0.00 0.00 75 1008.0
20260504025053 58 253 0.0 7.0 0.00 0.00 0.00 76 1008.0
20260504024549 58 245 1.0 7.0 0.00 0.00 0.00 75 1008.0
20260504024044 58 226 1.0 11.0 0.00 0.00 0.00 75 1007.9
20260504023540 58 275 3.0 11.0 0.00 0.00 0.00 75 1007.9
20260504023036 58 234 0.0 9.0 0.00 0.00 0.00 75 1007.9
20260504022550 58 230 0.0 9.0 0.00 0.00 0.00 75 1007.7
20260504022052 58 236 2.0 6.0 0.00 0.00 0.00 74 1007.7
20260504021609 58 268 0.0 5.0 0.00 0.00 0.00 74 1007.7
20260504021044 58 284 0.0 11.0 0.00 0.00 0.00 73 1007.6
20260504020538 58 286 3.0 11.0 0.00 0.00 0.00 73 1007.6
20260504020112 59 192 1.0 9.0 0.00 0.00 0.00 72 1007.6
20260504015557 59 252 3.0 9.0 0.00 0.00 0.00 72 1007.6
20260504015035 59 272 3.0 9.0 0.00 0.00 0.00 72 1007.6
20260504014534 59 196 2.0 6.0 0.00 0.00 0.00 72 1007.6